Вернуться в каталог

COSMOS 1711

GLONASS

АктивенНавигацияMEO
NORAD 16397·PAYLOAD·🇷🇺 Russia

Запущен Dec 24, 1985 с Baikonur Cosmodrome

Loading…

Ближайшие Пролёты (ближайшие 24 часа)

TLE

УстаревающийSource: Space-Track

Эпоха: Aug 29, 2026, 04:34 UTC

1 16397U 85118B   26241.19063991 -.00000037  00000-0  00000+0 0  9992
2 16397  66.0234 322.0376 0009818 188.2149 218.5344  2.13101405316319

Отслеживайте COSMOS 1711 в реальном времени с AllMySat

Download on the App Store